Time,TemperatureF,DewpointF,PressureIn,WindDirection,WindDirectionDegrees,WindSpeedMPH,WindSpeedGustMPH,Humidity,HourlyPrecipIn,Conditions,Clouds,dailyrainin,SoftwareType,DateUTC
2013-03-25 00:00:00,42.0,33.0,30.00,North,5,3.0,5.0,70,0.00,,,0.00,weatherlink.com 1.10,2013-03-25 07:00:00,
2013-03-25 00:15:00,41.6,31.0,30.00,North,9,5.0,5.0,67,0.00,,,0.00,weatherlink.com 1.10,2013-03-25 07:15:00,
2013-03-25 00:30:00,39.8,31.0,30.00,North,5,4.0,5.0,71,0.00,,,0.00,weatherlink.com 1.10,2013-03-25 07:30:00,
2013-03-25 00:45:00,38.5,31.0,30.00,North,5,4.0,6.0,73,0.00,,,0.00,weatherlink.com 1.10,2013-03-25 07:45:00,
2013-03-25 01:00:00,37.6,30.0,30.00,North,5,4.0,6.0,75,0.00,,,0.00,weatherlink.com 1.10,2013-03-25 08:00:00,
2013-03-25 01:15:00,36.9,30.0,30.00,North,5,4.0,6.0,76,0.00,,,0.00,weatherlink.com 1.10,2013-03-25 08:15:00,
2013-03-25 01:30:00,36.6,30.0,30.00,North,5,4.0,6.0,76,0.00,,,0.00,weatherlink.com 1.10,2013-03-25 08:30:00,
2013-03-25 01:45:00,36.5,30.0,30.00,North,5,4.0,5.0,77,0.00,,,0.00,weatherlink.com 1.10,2013-03-25 08:45:00,
2013-03-25 02:00:00,35.9,29.0,30.00,North,5,5.0,5.0,75,0.00,,,0.00,weatherlink.com 1.10,2013-03-25 09:00:00,
2013-03-25 02:15:00,35.2,29.0,30.00,North,5,4.0,5.0,77,0.00,,,0.00,weatherlink.com 1.10,2013-03-25 09:15:00,
2013-03-25 02:30:00,35.1,29.0,30.00,North,5,4.0,5.0,77,0.00,,,0.00,weatherlink.com 1.10,2013-03-25 09:30:00,
2013-03-25 02:45:00,34.6,27.0,30.00,North,5,5.0,5.0,74,0.00,,,0.00,weatherlink.com 1.10,2013-03-25 09:45:00,
2013-03-25 03:00:00,34.7,26.0,29.99,North,5,4.0,6.0,71,0.00,,,0.00,weatherlink.com 1.10,2013-03-25 10:00:00,
2013-03-25 03:15:00,35.0,26.0,29.99,North,5,4.0,5.0,69,0.00,,,0.00,weatherlink.com 1.10,2013-03-25 10:15:00,
2013-03-25 03:30:00,35.2,26.0,29.99,North,5,3.0,6.0,68,0.00,,,0.00,weatherlink.com 1.10,2013-03-25 10:30:00,
2013-03-25 03:45:00,35.1,25.0,29.99,North,5,4.0,5.0,67,0.00,,,0.00,weatherlink.com 1.10,2013-03-25 10:45:00,
2013-03-25 04:00:00,35.4,25.0,29.99,North,5,5.0,5.0,65,0.00,,,0.00,weatherlink.com 1.10,2013-03-25 11:00:00,
2013-03-25 04:15:00,35.8,24.0,29.98,North,5,5.0,5.0,63,0.00,,,0.00,weatherlink.com 1.10,2013-03-25 11:15:00,
2013-03-25 04:30:00,35.3,24.0,29.99,North,5,4.0,5.0,63,0.00,,,0.00,weatherlink.com 1.10,2013-03-25 11:30:00,
2013-03-25 04:45:00,35.0,24.0,29.99,North,5,4.0,5.0,64,0.00,,,0.00,weatherlink.com 1.10,2013-03-25 11:45:00,
2013-03-25 05:00:00,34.5,23.0,29.99,North,5,4.0,5.0,64,0.00,,,0.00,weatherlink.com 1.10,2013-03-25 12:00:00,
2013-03-25 05:15:00,34.9,23.0,29.99,North,5,4.0,5.0,62,0.00,,,0.00,weatherlink.com 1.10,2013-03-25 12:15:00,
2013-03-25 05:30:00,35.2,23.0,29.99,North,5,5.0,5.0,61,0.00,,,0.00,weatherlink.com 1.10,2013-03-25 12:30:00,
2013-03-25 05:45:00,35.9,23.0,30.00,North,5,2.0,5.0,59,0.00,,,0.00,weatherlink.com 1.10,2013-03-25 12:45:00,
2013-03-25 06:01:00,36.6,22.0,30.00,North,5,0.0,2.0,57,0.00,,,0.00,weatherlink.com 1.10,2013-03-25 13:01:00,
2013-03-25 06:16:00,35.7,22.0,30.00,North,5,3.0,5.0,58,0.00,,,0.00,weatherlink.com 1.10,2013-03-25 13:16:00,
2013-03-25 06:31:00,33.8,21.0,30.01,North,5,3.0,5.0,61,0.00,,,0.00,weatherlink.com 1.10,2013-03-25 13:31:00,
2013-03-25 06:46:00,33.3,22.0,30.01,North,5,3.0,4.0,63,0.00,,,0.00,weatherlink.com 1.10,2013-03-25 13:46:00,
2013-03-25 07:01:00,33.2,22.0,30.02,North,5,4.0,5.0,64,0.00,,,0.00,weatherlink.com 1.10,2013-03-25 14:01:00,
2013-03-25 07:16:00,32.9,22.0,30.02,North,5,5.0,5.0,65,0.00,,,0.00,weatherlink.com 1.10,2013-03-25 14:16:00,
2013-03-25 07:31:00,33.6,24.0,30.03,North,5,3.0,5.0,69,0.00,,,0.00,weatherlink.com 1.10,2013-03-25 14:31:00,
2013-03-25 08:01:00,44.2,28.0,30.04,North,5,0.0,3.0,54,0.00,,,0.00,weatherlink.com 1.10,2013-03-25 15:01:00,
2013-03-25 08:16:00,51.6,31.0,30.04,North,5,0.0,1.0,45,0.00,,,0.00,weatherlink.com 1.10,2013-03-25 15:16:00,
2013-03-25 08:31:00,55.7,28.0,30.04,North,5,0.0,1.0,34,0.00,,,0.00,weatherlink.com 1.10,2013-03-25 15:31:00,
2013-03-25 08:46:00,57.0,27.0,30.04,East,95,1.0,4.0,32,0.00,,,0.00,weatherlink.com 1.10,2013-03-25 15:46:00,
2013-03-25 09:01:00,59.9,29.0,30.04,ESE,119,3.0,4.0,31,0.00,,,0.00,weatherlink.com 1.10,2013-03-25 16:01:00,
2013-03-25 09:16:00,60.6,29.0,30.04,SSW,198,1.0,6.0,30,0.00,,,0.00,weatherlink.com 1.10,2013-03-25 16:16:00,
2013-03-25 09:31:00,62.2,30.0,30.04,SE,134,3.0,7.0,30,0.00,,,0.00,weatherlink.com 1.10,2013-03-25 16:31:00,
2013-03-25 09:46:00,63.4,30.0,30.05,South,177,3.0,7.0,28,0.00,,,0.00,weatherlink.com 1.10,2013-03-25 16:46:00,
2013-03-25 10:01:00,63.9,29.0,30.05,ESE,110,1.0,8.0,27,0.00,,,0.00,weatherlink.com 1.10,2013-03-25 17:01:00,
2013-03-25 10:16:00,64.8,29.0,30.05,South,182,6.0,7.0,26,0.00,,,0.00,weatherlink.com 1.10,2013-03-25 17:16:00,
2013-03-25 10:31:00,65.1,30.0,30.05,WSW,242,4.0,6.0,27,0.00,,,0.00,weatherlink.com 1.10,2013-03-25 17:31:00,
2013-03-25 10:46:00,66.4,30.0,30.05,South,190,3.0,9.0,26,0.00,,,0.00,weatherlink.com 1.10,2013-03-25 17:46:00,
2013-03-25 11:16:00,66.5,28.0,30.04,East,90,1.0,8.0,24,0.00,,,0.00,weatherlink.com 1.10,2013-03-25 18:16:00,
2013-03-25 11:31:00,66.7,29.0,30.04,ESE,120,1.0,7.0,24,0.00,,,0.00,weatherlink.com 1.10,2013-03-25 18:31:00,
2013-03-25 11:46:00,67.8,30.0,30.04,East,82,5.0,11.0,24,0.00,,,0.00,weatherlink.com 1.10,2013-03-25 18:46:00,
2013-03-25 12:01:00,68.4,28.0,30.04,ESE,108,3.0,9.0,22,0.00,,,0.00,weatherlink.com 1.10,2013-03-25 19:01:00,
2013-03-25 12:16:00,66.7,28.0,30.03,WNW,298,3.0,8.0,23,0.00,,,0.00,weatherlink.com 1.10,2013-03-25 19:16:00,
2013-03-25 12:31:00,68.0,30.0,30.03,South,191,6.0,9.0,24,0.00,,,0.00,weatherlink.com 1.10,2013-03-25 19:31:00,
2013-03-25 13:02:00,70.2,32.0,30.02,West,271,2.0,9.0,24,0.00,,,0.00,weatherlink.com 1.10,2013-03-25 20:02:00,
2013-03-25 13:32:00,71.1,29.0,30.02,SSE,165,6.0,10.0,21,0.00,,,0.00,weatherlink.com 1.10,2013-03-25 20:32:00,
2013-03-25 13:47:00,70.9,31.0,30.01,South,189,8.0,16.0,23,0.00,,,0.00,weatherlink.com 1.10,2013-03-25 20:47:00,
2013-03-25 14:02:00,70.2,28.0,30.01,SE,138,1.0,10.0,21,0.00,,,0.00,weatherlink.com 1.10,2013-03-25 21:02:00,
2013-03-25 14:17:00,71.2,34.0,30.00,SSW,213,6.0,11.0,26,0.00,,,0.00,weatherlink.com 1.10,2013-03-25 21:17:00,
2013-03-25 14:32:00,70.8,34.0,30.00,WSW,254,5.0,15.0,26,0.00,,,0.00,weatherlink.com 1.10,2013-03-25 21:32:00,
2013-03-25 14:47:00,70.1,36.0,29.99,SSW,209,7.0,12.0,29,0.00,,,0.00,weatherlink.com 1.10,2013-03-25 21:47:00,
2013-03-25 15:02:00,71.1,39.0,29.99,South,188,8.0,19.0,31,0.00,,,0.00,weatherlink.com 1.10,2013-03-25 22:02:00,
2013-03-25 15:17:00,68.2,39.0,29.98,SW,229,7.0,14.0,35,0.00,,,0.00,weatherlink.com 1.10,2013-03-25 22:17:00,
2013-03-25 15:32:00,68.1,41.0,29.98,West,275,3.0,10.0,37,0.00,,,0.00,weatherlink.com 1.10,2013-03-25 22:32:00,
2013-03-25 15:47:00,67.6,41.0,29.97,SW,217,8.0,12.0,38,0.00,,,0.00,weatherlink.com 1.10,2013-03-25 22:47:00,
2013-03-25 16:02:00,66.9,38.0,29.97,West,270,5.0,12.0,35,0.00,,,0.00,weatherlink.com 1.10,2013-03-25 23:02:00,
2013-03-25 16:17:00,65.3,41.0,29.96,West,267,8.0,12.0,42,0.00,,,0.00,weatherlink.com 1.10,2013-03-25 23:17:00,
2013-03-25 16:32:00,66.1,42.0,29.96,West,279,2.0,10.0,41,0.00,,,0.00,weatherlink.com 1.10,2013-03-25 23:32:00,
2013-03-25 16:47:00,65.6,41.0,29.96,West,267,2.0,11.0,40,0.00,,,0.00,weatherlink.com 1.10,2013-03-25 23:47:00,
2013-03-25 17:02:00,65.6,38.0,29.96,West,281,7.0,8.0,37,0.00,,,0.00,weatherlink.com 1.10,2013-03-26 00:02:00,
2013-03-25 17:17:00,65.3,37.0,29.96,West,275,2.0,12.0,35,0.00,,,0.00,weatherlink.com 1.10,2013-03-26 00:17:00,
2013-03-25 17:32:00,64.7,37.0,29.96,WSW,252,6.0,11.0,36,0.00,,,0.00,weatherlink.com 1.10,2013-03-26 00:32:00,
2013-03-25 17:47:00,62.9,36.0,29.96,WNW,295,2.0,9.0,37,0.00,,,0.00,weatherlink.com 1.10,2013-03-26 00:47:00,
2013-03-25 18:02:00,61.3,35.0,29.96,West,277,4.0,9.0,38,0.00,,,0.00,weatherlink.com 1.10,2013-03-26 01:02:00,
2013-03-25 18:17:00,60.5,33.0,29.96,WSW,252,3.0,7.0,36,0.00,,,0.00,weatherlink.com 1.10,2013-03-26 01:17:00,
2013-03-25 18:32:00,57.7,35.0,29.96,West,281,1.0,7.0,42,0.00,,,0.00,weatherlink.com 1.10,2013-03-26 01:32:00,
2013-03-25 18:47:00,55.9,33.0,29.96,WSW,251,1.0,6.0,42,0.00,,,0.00,weatherlink.com 1.10,2013-03-26 01:47:00,
2013-03-25 19:17:00,52.3,32.0,29.96,NW,322,0.0,2.0,47,0.00,,,0.00,weatherlink.com 1.10,2013-03-26 02:17:00,
2013-03-25 19:32:00,48.3,33.0,29.97,NW,322,0.0,3.0,57,0.00,,,0.00,weatherlink.com 1.10,2013-03-26 02:32:00,
2013-03-25 19:47:00,46.0,30.0,29.98,NW,322,2.0,4.0,53,0.00,,,0.00,weatherlink.com 1.10,2013-03-26 02:47:00,
2013-03-25 20:02:00,46.1,29.0,29.98,NW,317,3.0,5.0,51,0.00,,,0.00,weatherlink.com 1.10,2013-03-26 03:02:00,
2013-03-25 20:17:00,47.7,30.0,29.98,NW,311,4.0,5.0,50,0.00,,,0.00,weatherlink.com 1.10,2013-03-26 03:17:00,
2013-03-25 20:32:00,48.1,30.0,29.98,West,273,2.0,7.0,50,0.00,,,0.00,weatherlink.com 1.10,2013-03-26 03:32:00,
2013-03-25 20:47:00,47.9,29.0,29.98,NW,318,0.0,5.0,48,0.00,,,0.00,weatherlink.com 1.10,2013-03-26 03:47:00,
2013-03-25 21:02:00,47.6,31.0,29.99,NW,314,3.0,5.0,52,0.00,,,0.00,weatherlink.com 1.10,2013-03-26 04:02:00,
2013-03-25 21:17:00,47.7,32.0,29.99,NW,309,2.0,5.0,55,0.00,,,0.00,weatherlink.com 1.10,2013-03-26 04:17:00,
2013-03-25 21:32:00,47.9,34.0,29.99,WNW,295,2.0,6.0,58,0.00,,,0.00,weatherlink.com 1.10,2013-03-26 04:32:00,
2013-03-25 21:47:00,47.5,34.0,29.99,WNW,290,0.0,4.0,61,0.00,,,0.00,weatherlink.com 1.10,2013-03-26 04:47:00,
2013-03-25 22:02:00,46.3,32.0,29.99,WNW,290,0.0,5.0,59,0.00,,,0.00,weatherlink.com 1.10,2013-03-26 05:02:00,
2013-03-25 22:17:00,46.3,32.0,30.00,WNW,289,3.0,5.0,58,0.00,,,0.00,weatherlink.com 1.10,2013-03-26 05:17:00,
2013-03-25 22:32:00,46.8,29.0,29.99,West,272,1.0,6.0,51,0.00,,,0.00,weatherlink.com 1.10,2013-03-26 05:32:00,
2013-03-25 22:47:00,47.0,28.0,30.00,WSW,254,1.0,6.0,47,0.00,,,0.00,weatherlink.com 1.10,2013-03-26 05:47:00,
2013-03-25 23:02:00,48.1,26.0,30.00,WSW,238,4.0,9.0,42,0.00,,,0.00,weatherlink.com 1.10,2013-03-26 06:02:00,
2013-03-25 23:17:00,48.9,24.0,29.99,West,273,3.0,8.0,38,0.00,,,0.00,weatherlink.com 1.10,2013-03-26 06:17:00,
2013-03-25 23:32:00,49.4,23.0,29.98,WSW,253,2.0,9.0,35,0.00,,,0.00,weatherlink.com 1.10,2013-03-26 06:32:00,
2013-03-25 23:47:00,49.5,23.0,29.98,WSW,254,5.0,11.0,35,0.00,,,0.00,weatherlink.com 1.10,2013-03-26 06:47:00,